Temp
-15 -15 -15 -15 -15 -15 -15 -14 -14 -14 -14 -14 -14 -14 -14 -14 -14 -14 -14 -14 -14 -14 -14 -14 -14 -14 -14 -14 -14 -14 -14 -14 -14 -14 -14 -14 -15 -15 -15 -15 -15 -15
-15 -15 -15 -15 -15 -15 -15 -15 -14 -14 -14 -14 -14 -14 -14 -14 -14 -14 -14 -14 -14 -14 -14 -14 -14 -14 -14 -14 -14 -14 -14 -14 -14 -14 -14 -14 -14 -15 -15 -15 -15 -15
-16 -16 -15 -15 -15 -15 -15 -15 -14 -14 -14 -14 -14 -14 -14 -14 -14 -14 -14 -14 -14 -14 -14 -14 -14 -14 -14 -14 -15 -15 -15 -15 -14 -14 -14 -14 -14 -14 -15 -15 -15 -15
-16 -16 -16 -15 -15 -15 -15 -15 -15 -14 -14 -14 -14 -14 -14 -14 -14 -14 -14 -14 -14 -14 -14 -14 -14 -14 -14 -15 -15 -15 -15 -15 -15 -15 -15 -15 -15 -15 -15 -15 -15 -15
-16 -16 -16 -16 -15 -15 -15 -15 -15 -14 -14 -14 -14 -14 -14 -14 -14 -14 -14 -14 -14 -14 -14 -14 -15 -15 -15 -15 -15 -15 -15 -15 -15 -15 -15 -15 -15 -15 -15 -15 -15 -15
-16 -16 -16 -15 -15 -15 -15 -15 -15 -15 -14 -14 -14 -15 -15 -14 -14 -14 -14 -14 -14 -14 -14 -14 -15 -15 -15 -15 -15 -15 -15 -15 -15 -15 -15 -15 -15 -15 -15 -15 -15 -15
-16 -16 -16 -15 -16 -16 -15 -15 -15 -14 -14 -14 -15 -15 -15 -15 -14 -14 -14 -14 -14 -14 -14 -14 -14 -15 -15 -15 -15 -15 -15 -15 -15 -15 -15 -15 -15 -15 -15 -16 -16 -16
-16 -16 -16 -16 -16 -16 -15 -15 -15 -15 -14 -14 -15 -15 -15 -15 -15 -15 -14 -14 -14 -14 -14 -15 -15 -15 -15 -15 -15 -15 -16 -16 -16 -15 -16 -16 -16 -16 -16 -16 -16 -16
-15 -16 -16 -16 -16 -16 -16 -16 -15 -15 -15 -15 -15 -15 -15 -15 -15 -15 -15 -14 -15 -15 -15 -15 -15 -15 -15 -15 -15 -15 -16 -16 -16 -16 -16 -16 -16 -16 -16 -16 -16 -17
-15 -16 -16 -16 -16 -16 -16 -16 -16 -16 -16 -16 -16 -16 -16 -15 -15 -15 -15 -15 -15 -15 -15 -15 -15 -15 -15 -15 -15 -16 -16 -16 -16 -16 -16 -16 -16 -16 -17 -17 -17 -17
-16 -16 -16 -16 -16 -16 -17 -16 -16 -16 -16 -16 -16 -16 -16 -16 -15 -15 -15 -15 -15 -15 -15 -15 -15 -15 -15 -15 -16 -16 -16 -16 -16 -16 -16 -16 -16 -16 -17 -17 -17 -17
-16 -16 -16 -16 -17 -17 -17 -16 -16 -16 -16 -16 -16 -16 -16 -16 -16 -16 -16 -16 -16 -16 -16 -16 -16 -16 -16 -16 -16 -16 -16 -16 -16 -16 -16 -17 -17 -17 -17 -17 -17 -17
-16 -16 -17 -17 -17 -17 -17 -17 -17 -17 -17 -17 -17 -16 -16 -16 -16 -16 -16 -16 -16 -16 -16 -16 -16 -16 -16 -17 -17 -17 -17 -17 -17 -17 -17 -17 -17 -17 -17 -17 -17 -17
-16 -17 -17 -17 -17 -17 -17 -17 -17 -17 -17 -17 -17 -17 -17 -17 -16 -16 -16 -17 -16 -17 -17 -17 -17 -17 -17 -17 -17 -17 -17 -17 -17 -17 -17 -17 -17 -17 -17 -17 -17 -17
-16 -16 -17 -17 -17 -17 -17 -17 -17 -17 -17 -17 -17 -17 -17 -17 -17 -17 -17 -17 -17 -17 -17 -17 -17 -17 -17 -17 -17 -17 -17 -17 -17 -17 -17 -17 -17 -17 -17 -17 -17 -17
-17 -17 -17 -17 -17 -17 -17 -17 -17 -17 -17 -17 -17 -17 -17 -17 -17 -17 -17 -17 -17 -17 -17 -17 -17 -17 -17 -17 -17 -17 -17 -17 -17 -17 -17 -17 -17 -17 -17 -17 -17 -17
-17 -17 -17 -17 -17 -17 -17 -17 -17 -17 -17 -17 -17 -17 -17 -17 -17 -17 -17 -17 -17 -17 -17 -17 -17 -17 -17 -18 -18 -18 -18 -18 -18 -18 -17 -17 -18 -18 -18 -18 -18 -17
-18 -18 -18 -18 -18 -18 -18 -18 -18 -18 -18 -17 -17 -17 -18 -18 -17 -17 -17 -17 -17 -17 -17 -17 -17 -18 -18 -18 -18 -18 -18 -18 -18 -17 -17 -17 -17 -17 -17 -17 -18 -18
-18 -18 -18 -18 -18 -18 -18 -18 -18 -18 -18 -18 -18 -18 -18 -18 -18 -18 -17 -17 -17 -18 -17 -17 -18 -18 -18 -18 -18 -18 -18 -18 -18 -17 -17 -17 -17 -17 -17 -17 -18 -18
-18 -18 -18 -18 -18 -18 -18 -18 -18 -18 -18 -18 -18 -18 -18 -18 -18 -18 -18 -17 -18 -18 -18 -17 -18 -18 -18 -18 -18 -18 -18 -18 -18 -18 -18 -17 -17 -17 -17 -18 -18 -19
-18 -18 -18 -18 -18 -18 -18 -18 -18 -18 -18 -18 -18 -18 -18 -18 -18 -18 -18 -18 -18 -18 -18 -18 -18 -18 -18 -19 -19 -19 -19 -19 -18 -18 -18 -17 -17 -17 -18 -18 -18 -19
-18 -18 -18 -18 -19 -19 -19 -19 -19 -19 -18 -18 -18 -18 -18 -18 -18 -18 -18 -18 -18 -18 -18 -18 -18 -18 -19 -19 -19 -19 -19 -19 -19 -19 -18 -18 -17 -17 -18 -18 -18 -18
-18 -19 -19 -19 -19 -19 -19 -19 -19 -19 -19 -19 -18 -18 -18 -18 -18 -18 -18 -18 -18 -18 -18 -18 -18 -18 -19 -19 -19 -19 -19 -19 -19 -19 -19 -18 -18 -18 -17 -18 -18 -18
-19 -19 -19 -19 -19 -19 -19 -19 -19 -19 -19 -19 -19 -19 -19 -19 -18 -18 -18 -18 -18 -18 -18 -18 -18 -18 -18 -19 -19 -19 -19 -19 -19 -19 -19 -19 -19 -19 -18 -18 -18 -18
-19 -19 -19 -19 -19 -20 -19 -19 -19 -19 -19 -19 -19 -19 -19 -19 -19 -18 -18 -18 -18 -18 -18 -18 -18 -18 -19 -19 -19 -19 -19 -19 -19 -19 -19 -19 -19 -19 -19 -19 -19 -19
-19 -19 -19 -19 -20 -20 -20 -20 -20 -19 -19 -19 -19 -19 -19 -19 -19 -19 -19 -19 -19 -19 -19 -19 -19 -19 -19 -19 -19 -19 -19 -19 -19 -19 -19 -19 -19 -19 -19 -20 -19 -19
Height
5765 5767 5769 5769 5770 5770 5771 5772 5772 5773 5773 5773 5773 5773 5773 5773 5773 5772 5772 5772 5771 5771 5771 5771 5771 5771 5771 5771 5771 5770 5770 5770 5770 5769 5769 5769 5769 5769 5770 5770 5771 5771
5762 5764 5767 5768 5768 5769 5770 5771 5771 5771 5771 5771 5771 5771 5771 5771 5771 5771 5771 5770 5770 5770 5769 5769 5769 5770 5770 5770 5769 5769 5769 5768 5768 5768 5768 5768 5768 5768 5769 5769 5769 5769
5760 5762 5764 5766 5766 5767 5768 5769 5769 5770 5770 5769 5769 5769 5769 5769 5769 5769 5769 5769 5769 5768 5768 5768 5768 5768 5768 5768 5768 5768 5768 5767 5767 5767 5767 5767 5767 5768 5768 5768 5768 5768
5757 5759 5762 5764 5765 5765 5766 5767 5768 5768 5768 5768 5767 5767 5767 5767 5767 5768 5768 5767 5767 5767 5767 5767 5767 5767 5766 5766 5767 5767 5767 5767 5766 5766 5766 5766 5766 5767 5767 5767 5767 5767
5755 5757 5759 5762 5763 5763 5764 5764 5765 5765 5766 5766 5765 5765 5765 5765 5766 5766 5766 5766 5766 5766 5766 5766 5766 5766 5765 5765 5765 5766 5766 5766 5766 5766 5766 5765 5765 5765 5766 5766 5766 5766
5753 5754 5756 5758 5760 5761 5762 5762 5763 5763 5763 5764 5764 5763 5763 5763 5764 5764 5764 5764 5764 5764 5764 5764 5764 5765 5764 5764 5764 5764 5764 5765 5765 5765 5765 5765 5765 5765 5764 5764 5765 5765
5750 5751 5753 5755 5757 5759 5760 5760 5761 5761 5761 5762 5762 5762 5762 5762 5762 5762 5762 5762 5762 5763 5763 5763 5763 5763 5763 5763 5763 5763 5763 5763 5764 5764 5764 5764 5764 5764 5763 5763 5763 5763
5747 5748 5750 5752 5753 5756 5757 5758 5758 5758 5758 5759 5759 5759 5760 5760 5760 5760 5760 5760 5760 5760 5761 5761 5761 5762 5762 5761 5761 5761 5761 5762 5762 5762 5762 5762 5762 5762 5762 5762 5762 5762
5744 5745 5747 5749 5751 5752 5754 5755 5755 5755 5755 5756 5756 5757 5757 5758 5758 5758 5758 5758 5758 5758 5759 5759 5759 5760 5760 5760 5759 5759 5759 5759 5760 5760 5760 5760 5760 5760 5760 5760 5760 5760
5741 5742 5744 5745 5746 5748 5750 5751 5751 5751 5752 5753 5754 5754 5755 5755 5755 5756 5756 5756 5756 5757 5757 5757 5757 5758 5758 5758 5757 5757 5757 5757 5757 5758 5758 5758 5758 5758 5758 5758 5758 5757
5738 5739 5740 5741 5742 5744 5746 5747 5747 5748 5748 5749 5750 5751 5752 5752 5753 5753 5753 5754 5754 5755 5755 5755 5755 5756 5756 5755 5755 5755 5755 5755 5755 5755 5755 5756 5755 5755 5755 5755 5755 5755
5735 5736 5737 5738 5739 5740 5742 5743 5743 5744 5745 5746 5747 5748 5749 5749 5750 5750 5751 5751 5752 5752 5752 5753 5754 5754 5753 5753 5753 5753 5753 5753 5753 5753 5753 5753 5753 5753 5753 5753 5753 5752
5731 5732 5734 5735 5736 5737 5738 5739 5740 5741 5742 5743 5744 5745 5746 5747 5747 5747 5748 5748 5749 5749 5750 5750 5751 5751 5751 5751 5751 5751 5751 5751 5751 5751 5751 5751 5751 5751 5751 5750 5750 5750
5729 5730 5731 5732 5732 5733 5734 5735 5736 5738 5739 5740 5741 5742 5743 5743 5744 5744 5744 5745 5745 5746 5747 5747 5748 5748 5748 5748 5748 5748 5748 5749 5749 5749 5749 5749 5748 5748 5748 5748 5748 5748
5727 5727 5728 5728 5729 5730 5731 5732 5734 5735 5736 5737 5738 5738 5739 5739 5740 5741 5741 5742 5742 5743 5743 5743 5743 5743 5743 5744 5744 5745 5745 5746 5746 5747 5747 5746 5746 5746 5745 5745 5745 5745
5724 5725 5726 5726 5727 5728 5729 5730 5731 5732 5733 5734 5735 5735 5736 5737 5737 5738 5739 5740 5740 5740 5740 5740 5739 5739 5739 5740 5741 5741 5742 5743 5743 5743 5743 5743 5743 5743 5742 5742 5742 5742
5721 5722 5723 5723 5724 5725 5726 5727 5728 5729 5729 5730 5732 5732 5733 5734 5735 5736 5736 5737 5737 5736 5736 5736 5735 5735 5736 5737 5738 5738 5739 5739 5739 5739 5739 5739 5739 5739 5738 5738 5738 5737
5718 5719 5720 5720 5721 5722 5723 5724 5725 5726 5726 5727 5728 5728 5729 5731 5732 5733 5733 5733 5733 5732 5732 5731 5731 5731 5733 5734 5734 5734 5734 5735 5735 5735 5735 5735 5735 5735 5734 5733 5733 5733
5714 5715 5716 5717 5718 5719 5720 5721 5721 5722 5723 5723 5724 5725 5726 5727 5728 5729 5729 5729 5729 5728 5727 5727 5726 5727 5728 5729 5730 5730 5731 5731 5732 5732 5732 5732 5731 5730 5729 5728 5727 5727
5710 5711 5712 5713 5714 5715 5716 5717 5718 5719 5719 5720 5720 5720 5722 5723 5723 5724 5724 5725 5724 5723 5723 5723 5722 5722 5722 5723 5724 5725 5726 5727 5728 5728 5728 5728 5728 5727 5725 5723 5721 5721
5705 5706 5707 5708 5709 5710 5711 5712 5713 5714 5714 5715 5715 5716 5716 5717 5718 5718 5719 5719 5719 5718 5719 5719 5718 5717 5717 5717 5718 5719 5720 5721 5722 5723 5724 5724 5725 5722 5720 5719 5718 5717
5700 5701 5702 5702 5703 5704 5705 5706 5707 5708 5708 5709 5710 5710 5711 5712 5713 5713 5713 5714 5714 5714 5714 5714 5713 5712 5712 5712 5712 5713 5714 5715 5716 5717 5718 5719 5720 5717 5715 5714 5714 5712
5695 5695 5696 5697 5697 5698 5698 5699 5701 5702 5702 5703 5704 5704 5705 5706 5707 5708 5708 5709 5709 5709 5708 5709 5708 5707 5706 5707 5707 5707 5708 5709 5710 5711 5711 5713 5714 5713 5710 5709 5707 5707
5689 5689 5690 5691 5691 5691 5692 5693 5694 5695 5696 5698 5699 5699 5700 5701 5702 5702 5703 5703 5704 5703 5702 5702 5703 5701 5700 5700 5700 5700 5701 5702 5703 5704 5704 5705 5706 5706 5706 5704 5702 5701
5683 5683 5684 5685 5685 5685 5685 5686 5688 5689 5690 5691 5693 5694 5695 5695 5696 5696 5696 5696 5697 5697 5696 5695 5695 5695 5693 5693 5693 5693 5694 5695 5695 5696 5697 5698 5697 5697 5698 5698 5697 5695
5677 5677 5678 5678 5678 5678 5679 5680 5681 5682 5683 5684 5685 5686 5687 5688 5688 5689 5688 5689 5689 5689 5690 5689 5689 5688 5687 5686 5686 5686 5686 5687 5687 5688 5689 5689 5688 5688 5690 5690 5690 5689
Wind_Speed
19 18 16 16 15 16 17 16 15 14 12 11 9 9 10 12 13 14 15 15 14 14 14 15 14 14 14 14 13 13 14 14 14 15 14 13 12 10 10 9 9 8
17 16 16 16 17 18 17 18 17 15 12 10 9 9 10 11 12 14 15 15 15 14 14 15 15 15 15 15 14 14 13 14 14 14 14 14 12 11 10 10 9 8
17 18 18 17 19 19 19 19 19 16 13 11 9 9 10 11 12 13 14 15 15 15 15 15 15 15 15 15 15 14 14 13 13 14 14 14 13 12 11 10 9 9
18 20 20 19 21 21 20 21 21 18 14 12 11 10 9 10 12 13 14 15 16 16 16 15 15 15 15 16 16 15 14 14 13 13 13 12 12 11 10 10 9 9
20 22 22 22 22 21 21 21 21 19 16 14 12 10 10 11 12 13 14 15 16 16 17 16 15 15 15 16 16 16 15 15 14 14 13 12 11 11 10 9 9 9
21 22 23 24 25 23 22 21 20 19 17 15 13 12 12 12 13 13 13 14 15 15 16 16 16 16 15 15 15 16 15 15 15 15 14 13 12 11 10 10 10 10
24 23 24 24 25 24 22 21 21 20 18 16 15 14 14 14 14 14 14 14 15 15 15 15 16 16 16 16 15 15 15 15 15 15 15 14 13 13 12 12 12 12
26 25 24 22 22 24 25 24 22 22 20 18 17 16 15 15 15 15 14 14 14 15 15 15 15 15 16 16 15 14 14 15 15 15 15 15 15 15 15 15 16 16
29 28 26 25 26 28 29 27 24 22 21 19 18 17 16 16 16 16 15 14 14 14 15 15 15 15 15 15 15 14 14 14 15 15 16 16 17 17 18 18 18 18
28 27 27 29 31 32 30 27 23 21 20 18 17 17 18 18 17 17 16 15 14 15 15 16 16 15 15 14 14 14 14 15 15 16 16 17 17 18 18 19 19 19
23 23 23 26 28 29 29 26 23 20 18 18 18 19 19 19 19 18 17 16 16 15 16 16 17 16 15 14 13 13 13 13 14 15 15 16 16 17 18 19 20 21
22 21 21 21 24 27 28 25 21 19 19 19 19 20 20 21 21 20 18 17 17 16 17 17 18 17 15 13 12 11 11 12 13 13 14 15 16 17 18 19 20 21
19 19 20 21 23 25 25 23 21 20 20 20 20 21 21 21 21 20 19 18 18 17 17 18 18 18 17 15 14 13 13 13 14 14 15 16 17 17 18 19 20 21
18 19 21 22 23 23 22 21 20 20 20 20 21 21 22 22 22 21 20 19 19 19 19 19 20 20 20 20 20 19 19 18 17 17 17 18 19 20 21 22 23 23
20 20 20 21 21 21 21 21 20 20 20 19 19 21 22 23 22 22 21 21 22 23 24 23 24 25 26 25 25 25 24 23 23 22 21 21 22 22 23 25 25 25
20 20 20 20 19 20 21 21 20 20 20 20 20 20 21 22 22 22 22 23 25 26 27 28 29 31 31 30 29 29 29 28 27 27 26 26 25 25 27 27 27 27
21 21 21 21 20 20 20 20 20 20 21 21 21 21 21 22 23 23 23 25 26 28 29 30 33 34 33 33 33 33 32 32 32 31 31 30 29 29 30 30 29 28
24 23 23 23 23 23 22 22 22 23 24 24 24 25 26 26 26 26 27 28 29 30 31 33 34 35 34 33 33 31 31 31 32 33 34 35 35 35 36 36 34 32
26 26 26 26 25 25 25 25 25 26 26 27 28 29 29 28 28 29 29 30 31 32 34 35 36 35 34 33 32 32 32 32 32 33 34 36 38 39 40 40 38 35
31 30 30 29 29 29 29 29 28 29 29 30 31 32 32 31 31 32 31 32 34 35 36 38 39 38 37 36 37 37 36 35 35 34 34 34 35 37 38 39 38 37
35 34 34 34 33 33 33 33 33 33 33 33 34 35 35 35 34 34 35 35 37 38 39 40 42 43 42 41 41 39 37 36 36 36 35 34 35 38 39 38 39 39
39 38 39 39 39 39 39 38 37 37 36 37 38 39 39 39 39 39 39 39 40 41 42 43 45 46 46 44 43 42 41 41 40 39 39 38 38 42 44 44 43 44
42 42 42 42 42 42 42 41 40 40 40 40 40 41 41 41 41 40 41 41 43 44 46 47 48 49 49 47 45 45 45 45 44 44 44 43 41 41 43 46 47 48
45 45 44 44 44 44 44 44 43 41 40 40 39 39 40 41 43 45 47 48 50 51 51 51 51 51 52 51 48 47 47 47 47 47 48 48 46 44 45 48 51 51
46 45 44 45 44 45 46 46 45 43 42 42 43 44 46 48 50 52 54 55 55 54 53 53 53 53 54 54 52 51 50 50 50 51 51 50 50 50 48 48 49 50
49 47 46 45 44 45 46 47 48 48 48 50 51 53 54 56 56 56 56 56 56 55 55 54 54 54 55 55 55 54 54 54 53 54 54 53 54 53 51 48 47 47
Wind_Direction
280 279 272 264 263 269 271 272 273 273 278 285 289 297 309 319 327 330 330 326 319 313 308 306 304 302 302 302 302 301 298 293 288 283 276 269 262 258 257 259 262 269
274 268 269 271 268 269 272 273 273 272 274 277 283 293 306 318 324 326 328 326 322 318 312 308 304 299 297 298 299 299 297 294 289 283 278 271 265 260 259 259 261 267
269 261 264 274 274 270 269 272 273 271 269 269 275 288 303 315 320 322 325 325 323 320 315 311 307 301 296 292 292 291 289 287 283 279 276 272 269 266 265 265 266 270
267 260 263 273 277 273 266 267 269 264 259 261 269 286 302 309 314 319 322 323 323 320 314 309 305 301 297 291 289 286 282 278 274 271 269 268 269 270 271 273 276 277
271 262 263 268 275 275 267 263 263 256 251 258 271 286 296 300 308 313 316 319 318 316 311 306 301 298 294 289 287 286 281 276 272 268 265 263 264 266 269 274 278 280
280 269 266 266 268 270 266 261 259 256 253 261 275 285 289 294 300 303 307 311 311 309 307 303 299 295 291 285 281 280 279 277 274 271 268 267 266 266 269 272 276 280
282 274 272 270 264 263 262 259 257 254 254 262 271 278 283 288 291 293 297 302 305 306 305 302 298 293 289 285 278 274 274 274 274 274 274 275 275 275 276 278 281 284
278 273 270 265 259 260 262 260 256 251 251 257 263 269 276 280 283 284 285 290 295 299 300 300 298 293 287 284 280 276 273 272 272 273 276 279 282 284 286 287 288 288
272 270 265 259 258 263 264 260 255 249 248 253 258 265 271 274 276 276 276 280 284 288 293 295 295 293 286 280 277 274 273 273 274 276 280 283 287 291 293 294 294 292
272 272 270 266 265 268 266 259 252 249 249 253 259 265 269 270 270 269 270 272 275 280 285 287 288 288 284 278 274 272 273 276 279 282 285 290 293 295 297 297 296 294
277 276 276 274 271 269 265 257 251 248 249 253 257 261 264 265 264 262 263 264 269 275 279 281 282 279 274 270 268 269 274 279 283 286 290 293 294 296 298 297 296 294
277 275 274 268 262 259 256 252 247 246 248 251 253 255 257 258 258 257 258 262 267 272 275 276 273 267 262 260 261 266 273 279 285 290 293 295 296 296 297 297 296 293
277 273 267 258 252 250 250 248 247 246 248 250 252 253 253 253 254 255 258 264 269 271 271 269 265 260 259 262 267 272 274 276 280 284 289 293 294 294 294 296 297 294
279 273 265 259 255 253 252 252 253 254 254 254 254 254 253 252 253 254 258 262 266 267 267 265 260 259 261 267 273 276 276 277 277 278 282 285 287 288 289 290 292 295
271 268 263 261 261 260 260 260 261 261 260 258 258 258 256 255 253 254 257 259 261 263 264 264 262 261 264 268 273 276 278 278 279 279 279 279 281 283 283 285 288 291
261 259 259 261 263 262 262 263 262 262 262 262 262 261 259 259 258 258 259 261 263 264 265 266 266 266 267 270 274 278 280 281 282 283 283 282 283 281 280 281 282 284
255 254 255 257 258 258 259 260 260 261 263 263 263 262 261 262 263 263 263 263 264 266 267 270 271 271 274 276 278 279 280 281 282 283 284 285 285 284 283 282 280 278
256 254 255 257 258 259 260 260 259 260 262 263 263 264 264 265 265 265 266 267 268 270 271 274 275 276 279 279 277 276 277 278 279 282 283 284 285 285 285 285 284 280
259 258 259 259 258 259 260 259 259 260 261 262 264 264 265 266 267 267 269 271 272 274 275 277 279 279 280 279 275 274 277 279 280 281 282 284 285 283 283 284 284 282
264 265 263 261 259 259 258 257 258 259 260 261 263 264 266 268 268 269 272 273 274 275 277 279 281 281 281 279 276 277 279 278 278 278 280 282 283 281 280 281 282 280
267 267 265 263 262 260 259 258 258 259 259 261 264 266 267 269 269 270 272 273 274 275 277 278 280 280 280 280 279 279 278 277 277 278 277 278 279 279 277 278 280 281
266 266 265 264 262 260 259 259 259 260 260 262 264 266 268 269 269 269 270 271 271 272 275 276 277 278 278 278 278 278 278 278 279 278 277 276 277 277 277 276 277 278
265 266 265 263 260 257 256 258 260 262 262 264 265 267 268 269 268 268 268 269 270 272 273 275 276 276 276 276 276 276 277 278 278 278 277 277 275 272 273 275 276 277
265 265 263 259 257 256 256 259 262 262 262 264 265 266 268 269 270 271 272 273 273 274 275 275 275 275 276 276 275 275 275 275 276 276 276 277 276 272 271 273 276 277
259 259 257 254 254 256 258 260 262 262 264 265 267 269 271 272 274 275 275 275 275 275 275 275 275 276 277 277 278 278 277 276 276 276 277 277 277 276 275 274 274 275
253 253 251 251 253 256 259 261 264 266 269 270 271 273 274 276 277 277 276 275 274 274 273 274 275 276 277 277 278 278 278 278 278 279 279 279 278 278 277 276 275 275